JILIN-01 GAOFEN 3D 31 (52448 NORAD) Tracking and Keplerian Element Data
This shows tracking and keplerian element data for the satellite.
Feedback or suggestion? Click here.
Element | Value |
Catalog | 52448 |
Name | JILIN-01 GAOFEN 3D 31 |
Epoch Orbit | 634 |
Epoch Day | 167.0563317 |
Epoch Year | 2022 |
RAAN | 231.7441 |
Inclination | 97.6804 |
Eccentricity | 0.0015443 |
Argument of Perigee | 131.4991 |
Mean Anonmoly | 344.0126 |
Mean Motion | 15.10149007 |
Decay Rate | 3.875E-05 |
L1 | 1 52448U 22048F 22167.05633170 .00003875 00000+0 24096-3 0 9998 |
L2 | 2 52448 97.6804 231.7441 0015443 131.4991 344.0126 15.10149007 6347 |
Live tracking and technical data element details for JILIN-01 GAOFEN 3D 31 (NORAD 52448). JILIN-01 GAOFEN 3D 31 can be tracked NOW for your location showing map with azimuth and elevation plus other details from your city location.
Track the satellite on the map from your city or location and see movement details for azimuth, elevation, latitude, longitude, range, height, and movement on the map or in text.
IsCatalogInMostPopularTable: catalog: 52448, numindb: 3
Update: records affected: 1
GetName: 52448 JILIN-01 GAOFEN 3D 31
Hit Count: updated at: Mon, 27 Jun 2022 05:40:40 GMT